Language selection

My Weather Profile Weather Topics  | 

Pacific - North Coast: Past 24 Hour Conditions

 

Masset Municipal Airport

01:00 PM PDT 23 July 2021
Disclaimer

This table is a summary of hourly weather conditions for the past 24 hours.
Please note that these observations might not always be representative of weather conditions over their associated marine area.

Date / Time
(PDT)
Wind(knots) Conditions Visibility(km) Pressure(kPa) Air tempC) Relative humidity(%) Dew pointC)
23 July 2021
13:00 SW 4 Mostly Cloudy 24 101.9 17 73 12
12:00 WSW 3 Mostly Cloudy 24 101.8 17 80 14
11:00 SW 3 Mostly Cloudy 24 101.8 17 81 13
10:00 S 4 Mostly Cloudy 24 101.8 15 92 14
9:00 S 7 Mostly Cloudy 24 101.7 14 93 13
8:00 S 5 Mostly Cloudy 24 101.6 13 100 13
7:00 S 3 Mostly Cloudy 24 101.6 13 100 13
6:00 SSE 4 Mostly Cloudy 24 101.5 13 100 13
5:00 S 6 N/A N/A 101.5 13 100 13
4:00 S 6 N/A N/A 101.4 13 100 13
3:00 SSE 6 N/A N/A 101.4 13 100 13
2:00 SSE 12 gust 23 N/A N/A 101.4 13 100 13
1:00 SSE 13 gust 23 N/A N/A 101.4 13 100 13
0:00 SSE 13 gust 25 N/A N/A 101.4 13 100 13
22 July 2021
23:00 SSE 16 gust 28 N/A N/A 101.4 13 100 13
22:00 SSE 18 gust 24 N/A N/A 101.4 13 95 12
21:00 SSE 17 gust 25 N/A N/A 101.5 13 95 13
20:00 SSE 17 gust 24 N/A N/A 101.5 14 93 13
19:00 SSE 15 gust 26 N/A N/A 101.5 14 93 13
18:00 SSE 17 gust 31 N/A N/A 101.5 15 78 12
17:00 SSE 16 gust 24 Mostly Cloudy 24 101.6 16 76 12
16:00 SSE 19 gust 26 Mostly Cloudy 24 101.6 16 70 11
15:00 SSE 19 gust 25 Mostly Cloudy 24 101.6 17 66 11
14:00 SSE 10 gust 21 Mostly Cloudy 24 101.6 17 65 11
13:00 SSE 15 gust 20 Mostly Cloudy 24 101.6 17 65 11

Zoom-in to make a selection

Map of Pacific - North Coast marine weather areas Middle Nomad - 46004 South Nomad - 46036 Dixon Entrance Central - 46145 South Moresby - 46147 Nanakwa Shoal - 46181 North Hecate Strait - 46183 North Nomad - 46184 South Hecate Strait - 46185 West Sea Otter - 46204 West Dixon Entrance - 46205 East Dellwood - 46207 West Moresby - 46208 Sartine Island Cape St.James Kindakun Rocks Langara Island Masset Municipal Airport Rose Spit Sandspit Airport Bella Bella Airport Bella Coola Airport Bonilla Island Cathedral Point Cumshewa Island Grey Islet Holland Rock Lucy Islands Lightstation Prince Rupert Airport
Legend:
buoy Buoy
land station Land Station

Pacific - North Coast Area

Another Region

What we are doing

Date modified: